Union Aéronautique de la Côte d'Azur

Union Aéronautique de la Côte d'Azur
UACA
Approuvé A.T.O. EASA – N°FR.ATO.0108

UNION des aéroclubs
Cannes “Ailes d’Azur”, Nice “Côte d’Azur”, Grasse “St Exupery”, ACCA “Francis Séverac”

Un cache-pitot se trouve à bord de chaque avion. Pensez à le mettre en place à la fin de chaque vol !

Avant de quitter l'avion, vérifiez que vous n'emportez pas la checklist

Un vol ne s'entreprend qu'avec un pare-brise parfaitement propre, il en va de votre sécurité, et de celle des autres

Après chaque vol, merci de mettre en place les pares-soleil!


Météo à Cannes:
METAR
LFMD 202030Z AUTO 02002KT 9999 SCT058 OVC070 11/10 Q1012 =
LFMD 201400Z 2015/2115 VRB02KT 9999 OVC030 TEMPO 2015/2017 2000 SHRA BR BKN011 SCT015TCU OVC030 TEMPO 2106/2115 SHRA SCT020TCU OVC030

TAF
LFMD 201400Z 2015/2115 VRB02KT 9999 OVC030 TEMPO 2015/2017 2000 SHRA BR BKN011 SCT015TCU OVC030 TEMPO 2106/2115 SHRA SCT020TCU OVC030 =

SR / SS: 06:36 / 15:59 UTC (LFMD 2019-11-20)